Theta_e
316 316 316 316 316 317 317 317 319 320 320 320 319 319 319 320 321 322 322 323 323 323 323 323 323 322 321 321 322 323 324 326 326 327 326 326 325 324 325 325 326 324
315 315 316 316 316 317 318 319 321 322 322 322 322 322 322 323 324 324 325 325 324 325 324 324 324 323 322 322 322 322 323 324 325 326 327 326 325 325 325 326 326 324
314 315 317 317 317 317 318 319 321 321 321 321 322 322 323 324 325 326 326 326 326 326 325 325 325 324 323 322 322 322 323 323 323 325 326 326 326 326 325 324 325 323
312 314 315 315 315 315 315 316 316 316 318 319 320 322 324 325 326 326 326 326 327 326 326 326 326 325 325 324 323 322 323 324 324 324 325 326 325 324 322 323 324 324
311 312 312 312 312 313 313 313 313 314 317 318 319 322 324 325 325 325 325 326 326 326 327 327 326 325 325 325 324 322 322 323 325 326 326 325 325 323 321 323 324 325
312 312 312 311 311 312 312 312 313 315 317 318 320 322 323 324 324 324 324 325 325 326 326 326 326 325 326 326 324 322 322 322 323 326 327 325 325 324 323 324 325 325
312 312 311 312 311 311 312 312 312 313 314 317 320 322 323 323 323 323 323 324 324 324 325 325 325 325 326 325 324 322 322 323 323 324 325 326 325 325 325 325 324 325
312 312 312 312 312 311 311 311 311 311 312 314 317 319 320 320 321 321 322 322 322 322 324 324 325 325 325 325 324 322 322 323 324 323 324 326 327 327 327 326 326 326
312 312 312 312 312 311 311 311 311 311 311 312 312 313 315 317 318 319 320 320 321 322 323 324 324 325 325 324 323 323 322 323 324 323 324 325 326 326 326 325 326 326
311 312 312 312 312 312 311 311 311 310 310 310 311 311 313 314 315 318 320 320 321 322 323 324 325 324 324 324 323 322 322 323 324 324 324 326 326 326 325 325 324 323
310 310 311 312 312 312 312 311 311 310 310 310 310 311 311 312 315 317 319 320 320 322 323 323 324 323 323 323 322 321 321 322 323 324 325 326 326 326 326 325 325 323
310 310 310 311 311 312 312 312 311 310 310 310 310 310 310 311 313 315 318 320 321 322 323 323 323 323 323 322 322 321 321 322 323 324 325 325 325 326 326 325 325 325
311 310 310 310 310 311 311 312 312 312 311 310 309 309 310 310 312 313 315 317 319 321 322 322 322 322 322 322 322 322 322 322 323 324 324 325 325 326 326 325 325 324
311 311 311 310 310 310 310 311 312 312 312 311 310 309 309 309 310 311 312 313 316 319 320 320 321 321 321 322 322 323 323 323 324 324 324 325 325 325 325 325 325 324
310 311 311 311 310 310 310 310 311 312 312 312 311 310 309 309 309 310 313 315 317 318 319 320 320 321 321 322 323 323 324 324 324 325 325 325 325 326 325 325 325 324
310 310 310 310 310 310 310 310 310 312 312 312 311 310 309 309 309 310 312 314 315 316 317 319 320 321 321 322 323 323 324 325 325 325 325 324 324 325 326 326 324 324
311 310 310 310 310 310 310 310 310 311 312 312 311 310 309 309 309 310 311 312 314 316 317 318 319 320 321 322 323 324 324 324 324 324 324 324 324 324 325 324 323 322
311 310 310 310 310 310 310 310 309 310 311 312 311 311 310 309 309 309 310 312 315 316 317 319 319 320 321 322 323 323 323 323 323 323 323 323 323 323 323 323 321 321
311 310 310 310 310 310 310 310 310 310 310 311 311 311 310 309 309 309 310 312 315 317 317 318 319 320 322 322 322 322 322 322 322 322 322 322 322 322 322 321 321 321
310 310 310 310 310 310 310 310 310 310 310 311 311 311 310 309 309 309 309 310 313 316 317 318 319 320 321 321 321 321 321 321 320 320 320 320 320 321 320 320 320 319
310 310 310 310 310 310 310 310 309 309 310 310 310 311 310 309 309 308 308 308 310 312 314 315 316 318 320 320 320 320 320 320 320 320 320 319 319 319 318 317 318 318
309 310 310 309 309 309 309 309 309 309 310 310 310 310 310 309 309 308 309 310 312 313 314 314 314 315 316 318 319 319 319 319 319 320 319 318 317 316 316 316 318 318
309 309 309 309 309 309 309 309 309 309 309 309 310 310 309 309 309 309 310 312 313 314 316 317 316 316 316 317 318 319 319 319 319 318 318 317 316 315 315 316 317 317
310 309 309 309 309 309 309 309 309 309 309 309 309 309 309 308 308 308 309 311 312 313 315 316 317 318 318 318 318 319 319 318 317 317 316 316 315 314 314 315 315 315
309 309 309 309 309 309 309 309 309 309 309 309 309 309 309 308 308 307 307 308 310 312 313 314 315 316 316 317 317 317 316 316 315 314 314 314 313 313 313 313 312 312
309 310 309 309 309 309 309 309 309 309 309 309 309 309 309 309 308 307 307 307 308 309 311 312 313 314 314 314 314 314 313 312 312 311 311 311 310 310 310 310 310 309
Wind_Speed
34 35 36 37 38 38 38 39 40 41 41 42 43 44 44 44 44 44 44 44 43 43 43 42 41 41 41 41 42 44 45 46 46 46 46 44 42 41 41 41 39 37
33 34 36 37 37 38 38 39 40 41 42 42 43 44 44 44 44 44 44 44 44 44 43 42 41 40 40 41 43 44 45 45 45 46 46 45 43 42 42 41 40 38
32 33 35 36 37 37 38 39 40 41 42 42 43 43 44 44 44 44 44 44 44 44 43 43 41 39 39 40 42 44 45 45 44 44 45 46 44 43 43 42 40 39
30 32 33 35 35 36 36 37 38 39 40 42 42 42 43 43 44 44 44 44 44 43 42 41 40 39 39 40 41 43 45 46 45 43 44 45 45 44 43 42 40 40
25 27 28 30 31 32 34 36 37 38 39 40 41 42 42 42 43 43 43 43 42 41 40 40 39 39 40 40 40 41 43 44 45 46 45 45 44 43 42 42 41 41
20 22 23 25 27 29 32 34 35 36 37 38 38 39 39 39 40 40 40 40 40 40 39 39 38 39 40 39 39 40 41 42 44 46 48 47 45 43 42 42 41 42
17 18 20 21 24 26 28 30 31 33 34 35 35 36 36 36 37 37 38 38 39 39 38 38 38 38 38 37 37 37 39 42 43 44 48 50 47 44 44 43 43 43
15 16 17 19 20 22 24 25 27 29 31 32 34 35 35 35 35 35 35 36 36 36 36 37 37 37 36 35 35 35 36 40 43 44 47 49 47 46 46 45 44 43
15 15 16 17 18 20 21 22 23 25 27 29 31 32 33 34 33 33 32 32 33 33 34 35 35 34 34 34 33 33 35 39 43 44 45 47 47 46 46 45 44 45
16 16 16 17 17 18 19 19 21 22 23 26 28 30 31 32 31 30 29 30 31 31 32 33 33 32 32 33 32 32 33 37 41 44 45 45 46 44 43 44 44 43
16 16 17 17 17 18 19 19 20 20 21 23 25 27 28 29 29 29 29 30 30 30 31 31 31 31 31 32 33 32 32 34 38 42 44 47 48 44 40 40 41 40
15 16 17 18 18 18 19 19 19 20 21 21 23 25 26 27 29 29 29 29 28 29 30 30 30 31 32 32 31 30 31 33 37 40 42 46 50 48 41 36 37 39
16 16 17 18 19 19 19 19 19 19 20 20 21 22 24 26 27 29 30 30 29 29 30 30 30 31 32 31 29 28 29 31 34 38 41 44 48 50 45 38 34 35
18 18 18 18 19 19 19 19 19 19 19 19 20 20 22 23 24 25 25 24 25 27 28 28 29 29 29 28 27 26 28 29 31 35 38 41 45 46 44 42 38 33
20 19 19 19 19 20 20 20 20 20 20 19 19 19 20 20 20 20 20 20 22 24 25 25 27 28 27 26 26 26 26 27 29 32 35 39 44 42 40 44 46 37
21 21 21 20 20 21 21 21 21 21 21 20 19 18 18 18 18 18 19 20 22 22 23 24 25 26 25 25 25 25 25 26 28 31 33 37 43 43 41 47 49 41
22 22 22 21 21 21 22 22 22 21 21 20 19 18 18 18 18 18 17 18 19 19 21 22 22 23 23 23 23 23 24 26 27 29 31 34 38 39 41 47 47 39
21 21 21 22 22 22 22 22 22 22 21 21 19 18 18 18 18 17 16 15 17 18 19 20 20 21 21 22 22 23 24 25 26 29 31 33 37 37 39 43 41 34
20 19 20 21 21 22 22 22 22 22 21 21 20 19 18 18 18 17 15 15 16 17 18 19 19 20 20 21 22 22 23 24 26 29 30 32 35 37 39 41 38 30
18 18 18 19 20 21 21 21 21 21 21 20 20 19 18 18 17 17 16 15 16 17 18 18 18 19 19 19 21 23 23 23 24 26 28 30 32 34 38 40 37 28
17 17 17 17 18 19 19 20 20 20 20 19 19 19 18 17 17 16 14 13 14 15 17 18 18 19 19 18 19 21 23 24 25 26 27 29 31 33 36 36 33 26
15 15 15 15 16 16 17 18 18 19 19 19 18 18 18 16 15 14 11 10 11 13 14 15 16 18 21 20 19 19 20 21 23 25 26 26 28 31 32 32 30 27
13 13 13 13 14 14 15 15 16 16 17 17 17 17 17 16 14 13 11 10 11 12 13 13 13 14 16 18 19 20 20 20 20 20 20 20 22 26 29 31 32 30
11 11 11 11 12 12 13 13 14 14 14 15 16 15 15 15 15 14 12 12 12 13 14 14 13 13 13 13 14 15 16 17 17 17 17 19 23 26 29 31 31 29
10 9 9 9 9 10 10 11 11 12 12 13 13 14 13 14 14 14 13 13 13 14 14 14 14 14 15 14 13 13 13 14 14 15 17 19 22 24 26 27 28 28
8 8 8 8 8 8 9 9 9 10 11 11 11 12 12 12 12 12 13 13 14 14 14 14 14 14 14 14 14 13 14 14 14 15 16 18 19 21 23 25 27 29
Wind_Direction
257 258 260 261 263 265 265 266 265 265 265 265 266 267 269 270 270 270 269 269 268 266 265 264 262 261 260 260 258 255 252 249 248 248 248 249 250 249 250 250 249 249
257 258 260 261 263 265 266 267 268 268 268 268 268 269 270 270 270 269 269 269 268 268 268 266 264 262 261 260 259 256 254 250 246 245 246 248 249 249 249 249 249 251
257 258 260 262 265 267 268 269 269 270 270 270 270 270 270 270 270 270 269 269 268 268 268 267 265 264 263 262 259 256 254 252 247 244 244 246 247 247 248 248 248 250
255 257 259 262 264 266 268 268 268 269 269 270 270 270 270 271 270 270 270 270 269 269 268 267 267 268 266 263 260 255 252 251 250 246 243 244 246 246 247 247 246 249
257 258 260 261 263 264 264 265 266 267 267 268 269 270 270 271 271 271 271 271 271 270 269 268 269 270 268 265 263 260 255 250 248 247 246 245 245 246 247 247 246 248
263 263 263 263 263 262 263 263 265 266 267 268 269 269 270 271 271 272 272 272 272 272 271 270 270 269 268 267 265 263 260 255 248 245 246 248 247 248 249 247 246 248
269 270 269 269 268 267 267 268 269 269 269 269 269 269 269 270 270 271 272 272 272 272 272 271 271 270 269 270 269 264 260 258 254 247 245 247 249 249 247 246 247 246
272 272 272 272 272 271 271 273 272 272 271 270 269 268 268 268 268 269 269 270 271 272 272 272 272 271 270 269 269 266 260 256 255 252 248 246 246 246 246 247 246 244
277 276 275 274 274 274 274 274 274 272 271 269 269 269 268 266 267 267 268 269 270 271 272 273 272 272 273 273 270 268 263 256 254 254 251 247 245 245 245 245 244 245
279 279 278 278 277 278 278 277 276 273 271 269 269 268 267 267 266 266 267 267 267 268 270 270 268 270 274 276 276 274 269 262 257 255 253 250 249 248 247 246 246 247
282 281 281 282 284 285 285 285 282 280 276 272 270 269 267 265 263 262 264 266 267 268 267 265 265 267 269 271 275 276 273 268 263 259 255 253 251 250 251 254 253 249
289 288 286 286 287 290 292 294 293 292 288 282 277 273 269 265 261 258 258 261 265 266 264 264 266 266 267 271 276 278 275 271 267 263 260 256 253 250 250 255 256 253
293 293 292 291 291 292 293 296 298 298 296 292 286 279 274 269 264 260 257 254 254 258 261 264 265 265 267 271 274 275 274 271 267 264 261 259 256 252 248 251 254 252
290 292 294 294 293 293 292 293 294 295 294 293 290 284 279 274 268 264 262 256 254 256 258 260 263 266 268 268 268 268 268 266 264 263 261 259 257 254 252 254 251 247
287 289 290 291 291 291 289 288 288 288 289 289 290 288 284 280 273 267 264 260 259 259 259 262 265 267 267 267 268 268 266 263 263 261 259 258 256 252 254 256 250 242
284 285 287 288 289 289 288 287 286 286 288 290 291 291 289 285 279 272 265 260 258 257 256 258 260 262 262 264 267 268 266 263 263 261 258 259 257 252 253 256 249 241
282 283 285 288 290 291 291 291 291 291 292 293 294 295 292 288 282 276 270 264 258 257 256 255 256 257 259 262 264 265 265 263 263 263 260 260 259 255 257 258 250 242
283 282 284 287 289 292 293 294 296 296 296 296 296 297 295 291 286 279 272 266 261 260 260 259 259 258 257 259 260 261 264 263 265 267 264 262 260 258 262 260 250 245
289 287 287 288 290 293 294 295 297 297 297 296 296 296 294 289 286 280 271 263 259 260 263 262 261 260 260 262 262 262 264 263 264 266 266 266 263 261 264 259 245 244
294 293 292 291 291 293 294 295 297 296 297 297 296 295 293 289 287 282 272 263 258 257 260 262 262 263 265 265 263 264 268 270 270 270 268 269 267 266 266 255 241 247
297 297 298 296 295 296 296 296 298 297 297 298 296 295 293 291 290 288 282 275 268 263 261 261 260 258 261 266 266 264 266 268 268 268 268 269 266 265 263 251 243 260
305 305 306 305 303 302 301 300 300 300 299 297 295 294 292 289 289 290 289 282 276 275 274 273 268 259 259 266 270 270 270 268 265 264 266 267 265 264 258 248 250 269
315 315 315 314 311 309 306 304 303 301 300 299 296 294 292 288 286 284 280 273 270 272 275 276 275 268 264 266 268 270 272 271 266 263 262 262 261 257 250 246 254 267
322 324 324 321 318 316 312 309 306 302 300 299 297 294 292 290 287 283 277 271 269 271 272 272 273 274 275 274 271 269 269 268 264 258 255 256 255 253 250 251 260 270
329 332 335 334 332 329 323 318 314 310 307 304 301 298 294 290 288 286 281 274 270 269 270 272 274 276 277 278 277 275 273 272 269 265 264 265 263 262 262 266 271 275
330 335 339 345 347 345 342 337 332 327 322 317 312 307 302 297 291 284 279 275 271 269 268 268 271 275 280 284 286 285 283 280 276 274 273 273 273 273 274 276 277 277